Weather History for Vancouver, WA

Change the Weather History Date:

Sunday, February 3, 2013

  Actual Average Record
Temperature  
Mean Temperature 39 °F 43 °F  
Max Temperature 46 °F 50 °F 64 °F (1963)
Min Temperature 32 °F 35 °F -3 °F (1950)
Degree Days  
Heating Degree Days 26    
Month to date heating degree days 69  
Since 1 July heating degree days 2492  
Cooling Degree Days 0    
Month to date cooling degree days 0  
Year to date cooling degree days 0  
Moisture  
Dew Point 39 °F    
Average Humidity 88    
Maximum Humidity 93    
Minimum Humidity 82    
Precipitation  
Precipitation 0.00 in 0.18 in 0.87 in (1963)
Month to date precipitation 0.00 0.53  
Year to date precipitation 3.40 6.03  
Snow  
Snow 0.00 in - - ()
Month to date snowfall 0.0  
Snow Depth 0.00 in    
Sea Level Pressure  
Sea Level Pressure 30.30 in    
Wind  
Wind Speed 1 mph (SSW)    
Max Wind Speed 5 mph    
Max Gust Speed 7 mph    
Visibility 5 miles    
Events Fog    
T = Trace of Precipitation, MM = Missing Value Source: NWS Daily Summary

Daily Weather History Graph

Daily Weather History Graph

Search for Another Location

Airport:

Trip Planner

Search our weather history database for the weather conditions in past years. The results will help you decide how hot, cold, wet, or windy it might be!

Date:

Astronomy

Feb. 03, 2013 Rise Set
Actual Time 7:29 AM PST 5:20 PM PST
Civil Twilight 6:57 AM PST 5:51 PM PST
Nautical Twilight 6:22 AM PST 6:27 PM PST
Astronomical Twilight 5:47 AM PST 7:02 PM PST
Moon 1:04 AM PST (2/3) 10:59 AM PST (2/3)
Length of Visible Light 10h 54m
Length of Day
9h 51m
Waning Gibbous, 47% of the Moon is Illuminated
Feb 3
Waning Gibbous
Feb 9
New
Feb 17
First Quarter
Feb 25
Full
Mar 4
Last Quarter

Hourly Weather History & Observations

Time (PST) Temp. Windchill Dew Point Humidity Pressure Visibility Wind Dir Wind Speed Gust Speed Precip Events Conditions
12:53 AM 32.0 °F - 30.9 °F 96% 30.30 in 10.0 mi Calm Calm - N/A   Clear
1:40 AM 37.4 °F 34.9 °F 35.6 °F 93% 30.31 in 10.0 mi East 3.5 mph - N/A   Partly Cloudy
1:53 AM 35.1 °F - 33.1 °F 92% 30.31 in 9.0 mi Calm Calm - N/A   Scattered Clouds
2:00 AM 35.6 °F - 32.0 °F 87% 30.31 in 8.0 mi Calm Calm - N/A   Mostly Cloudy
2:26 AM 37.4 °F 33.8 °F 37.4 °F 100% 30.30 in 4.0 mi SE 4.6 mph - N/A   Overcast
2:40 AM 37.4 °F 33.8 °F 37.4 °F 100% 30.30 in 1.5 mi SSE 4.6 mph - N/A   Overcast
2:44 AM 39.2 °F - 37.4 °F 93% 30.30 in 0.8 mi Calm Calm - N/A   Overcast
2:53 AM 39.0 °F 36.8 °F 37.0 °F 93% 30.31 in 0.5 mi SE 3.5 mph - N/A Fog Fog
3:18 AM 39.2 °F - 37.4 °F 93% 30.30 in 0.2 mi Calm Calm - N/A Fog Fog
4:07 AM 39.2 °F - 37.4 °F 93% 30.31 in 0.5 mi Calm Calm - N/A Fog Fog
4:17 AM 39.2 °F - 37.4 °F 93% 30.30 in 0.2 mi Calm Calm - N/A Fog Fog
4:53 AM 39.0 °F - 37.9 °F 96% 30.30 in 0.2 mi Calm Calm - N/A Fog Fog
5:10 AM 39.2 °F - 39.2 °F 100% 30.32 in 0.5 mi Calm Calm - N/A Fog Fog
5:30 AM 39.2 °F - 37.4 °F 93% 30.32 in 0.2 mi Calm Calm - N/A Fog Fog
5:53 AM 39.0 °F - 37.9 °F 96% 30.32 in 0.5 mi Calm Calm - N/A Fog Fog
6:32 AM 39.2 °F - 39.2 °F 100% 30.33 in 1.5 mi Calm Calm - N/A   Overcast
6:42 AM 39.2 °F - 37.4 °F 93% 30.33 in 2.5 mi Calm Calm - N/A   Overcast
6:49 AM 39.2 °F - 37.4 °F 93% 30.32 in 4.0 mi Calm Calm - N/A   Overcast
6:53 AM 39.9 °F - 37.9 °F 93% 30.32 in 4.0 mi Calm Calm - N/A   Overcast
7:49 AM 39.2 °F 37.0 °F 37.4 °F 93% 30.33 in 10.0 mi ESE 3.5 mph - N/A   Overcast
7:53 AM 39.0 °F - 37.0 °F 93% 30.33 in 10.0 mi Calm Calm - N/A   Overcast
8:53 AM 41.0 °F - 37.9 °F 89% 30.34 in 10.0 mi Calm Calm - N/A   Overcast
9:53 AM 42.1 °F - 39.0 °F 89% 30.34 in 10.0 mi Calm Calm - N/A   Overcast
10:53 AM 41.0 °F 39.0 °F 39.0 °F 93% 30.36 in 3.0 mi NW 3.5 mph - N/A   Overcast
11:33 AM 41.0 °F - 39.2 °F 93% 30.34 in 3.0 mi Calm Calm - N/A   Overcast
11:53 AM 42.1 °F - 39.0 °F 89% 30.33 in 3.0 mi Calm Calm - N/A   Overcast
12:53 PM 44.1 °F - 39.9 °F 85% 30.31 in 6.0 mi Calm Calm - N/A   Overcast
1:06 PM 44.6 °F - 39.2 °F 81% 30.30 in 7.0 mi Calm Calm - N/A   Overcast
1:34 PM 44.6 °F - 39.2 °F 81% 30.29 in 9.0 mi Calm Calm - N/A   Overcast
1:53 PM 45.0 °F - 39.9 °F 82% 30.28 in 8.0 mi Calm Calm - N/A   Overcast
2:53 PM 46.0 °F - 41.0 °F 83% 30.28 in 6.0 mi Calm Calm - N/A   Haze
3:00 PM 46.4 °F - 41.0 °F 81% 30.27 in 7.0 mi Calm Calm - N/A   Overcast
3:41 PM 44.6 °F 43.1 °F 41.0 °F 87% 30.28 in 6.0 mi West 3.5 mph - N/A   Overcast
3:53 PM 45.0 °F 43.5 °F 41.0 °F 86% 30.28 in 6.0 mi West 3.5 mph - N/A   Overcast
4:53 PM 45.0 °F 43.5 °F 41.0 °F 86% 30.29 in 6.0 mi WNW 3.5 mph - N/A   Overcast
5:51 PM 44.6 °F 43.1 °F 41.0 °F 87% 30.28 in 8.0 mi NW 3.5 mph - N/A   Overcast
5:53 PM 45.0 °F - 41.0 °F 86% 30.28 in 8.0 mi Calm Calm - N/A   Overcast
6:21 PM 44.6 °F - 41.0 °F 87% 30.28 in 7.0 mi Calm Calm - N/A   Overcast
6:34 PM 44.6 °F - 41.0 °F 87% 30.28 in 7.0 mi Calm Calm - N/A   Overcast
6:53 PM 44.1 °F - 41.0 °F 89% 30.27 in 7.0 mi Calm Calm - N/A   Overcast
7:33 PM 42.8 °F - 41.0 °F 93% 30.27 in 6.0 mi Calm Calm - N/A   Overcast
7:53 PM 44.1 °F - 41.0 °F 89% 30.27 in 7.0 mi Calm Calm - N/A   Overcast
8:21 PM 42.8 °F - 41.0 °F 93% 30.26 in 6.0 mi Calm Calm - N/A   Overcast
8:53 PM 44.1 °F - 41.0 °F 89% 30.26 in 7.0 mi Calm Calm - N/A   Overcast
9:33 PM 44.6 °F - 41.0 °F 87% 30.27 in 6.0 mi Calm Calm - N/A   Overcast
9:53 PM 44.1 °F - 41.0 °F 89% 30.27 in 6.0 mi Calm Calm - N/A   Overcast
10:53 PM 43.0 °F - 39.9 °F 89% 30.25 in 6.0 mi Calm Calm - N/A   Overcast
11:20 PM 44.6 °F - 41.0 °F 87% 30.25 in 7.0 mi Calm Calm - N/A   Overcast
11:53 PM 43.0 °F - 39.9 °F 89% 30.25 in 6.0 mi Calm Calm - N/A   Overcast